Hourly Data Report for October 09, 2015

All times are specified in Local Standard Time (LST). Add 1 hour to adjust for Daylight Saving Time where and when it is observed.

CLYDE RIVER A
NUNAVUT

70°29'09.000" N
68°31'01.000" W
26.50 m
2400804
71090
YCY

Download Data

Hourly Data (October 2015)
Hourly Data Report for October 9, 2015
Temp Definition
°C
Dew Point Temp Definition
°C
Rel Hum Definition
%
Wind Dir Definition
10's deg

Wind Spd Definition
km/h
Visibility Definition
km
Stn Press Definition
kPa
Hmdx Definition


Wind Chill Definition


Weather Definition


TIME
00:00 Legend Double Dagger -5.9 -7.2 91 17 17 16.1 99.98   -12 LegendNANA
01:00 Legend Double Dagger -3.8 -5.5 88 20 11 16.1 99.99   -8 LegendNANA
02:00 Legend Double Dagger -4.1 -7.5 77 22 17 16.1 100.00   -10 LegendNANA
03:00 Legend Double Dagger -5.5 -8.6 79 19 8 16.1 100.03   -9 LegendNANA
04:00 Legend Double Dagger -5.9 -9.8 74 22 9 16.1 100.05   -10 LegendNANA
05:00 Legend Double Dagger -9.5 -11.8 84 LegendMM 5 16.1 100.06   -12 LegendNANA
06:00 Legend Double Dagger -8.0 -10.8 81 27 9 16.1 100.11   -13 LegendNANA
07:00 Legend Double Dagger -6.9 -10.5 76 27 8 16.1 100.13   -11 LegendNANA
08:00 Legend Double Dagger -6.3 -10.2 74 26 11 16.1 100.17   -11 LegendNANA
09:00 Legend Double Dagger -5.6 -9.5 74 24 5 16.1 100.19   -8 LegendNANA
10:00 Legend Double Dagger -5.3 -9.1 75 29 15 16.1 100.21   -11 LegendNANA
11:00 Legend Double Dagger -4.3 -8.4 73 29 13 16.1 100.25   -9 LegendNANA
12:00 Legend Double Dagger -4.0 -7.9 75 30 11 16.1 100.27   -8 LegendNANA
13:00 Legend Double Dagger -5.9 -9.1 79 29 11 16.1 100.33   -11 LegendNANA
14:00 Legend Double Dagger -4.2 -8.8 71 25 8 16.1 100.37   -8 LegendNANA
15:00 Legend Double Dagger -4.6 -8.5 75 26 8 16.1 100.40   -8 LegendNANA
16:00 Legend Double Dagger -4.0 -6.8 81 31 11 16.1 100.44   -8 LegendNANA
17:00 Legend Double Dagger -4.1 -7.1 80 33 11 16.1 100.46   -9 LegendNANA
18:00 Legend Double Dagger -4.2 -6.7 83 31 9 16.1 100.48   -8 LegendNANA
19:00 Legend Double Dagger -3.9 -6.7 81 31 13 16.1 100.50   -9 LegendNANA
20:00 Legend Double Dagger -4.0 -6.6 82 31 13 16.1 100.52   -9 LegendNANA
21:00 Legend Double Dagger -4.0 -6.5 83 31 17 16.1 100.51   -10 LegendNANA
22:00 Legend Double Dagger -3.9 -6.4 83 31 17 16.1 100.48   -10 LegendNANA
23:00 Legend Double Dagger -3.8 -6.4 82 32 21 16.1 100.48   -10 LegendNANA

Notes on Data Quality.

Legend

  • E = Estimated
  • M = Missing
  • NA = Not Available
  • ‡ = Partner data that is not subject to review by the National Climate Archives
Date modified: